(394758) = 2008 FT133 = 2011 US327

Discovered at Mount Lemmon on 2008-03-28 by Mt. Lemmon Survey.

Orbit

Orbit type: Main Belt

Note: WebGL enabled browser required.

epoch2024-03-31.0
epoch JD2460400.5
perihelion date2024-03-30.60806
perihelion JD2460400.10806
argument of perihelion (°)289.45153
ascending node (°)181.58197
inclination (°)5.79526
eccentricity0.1195543
perihelion distance (AU)2.8117045
Tisserand w.r.t. Jupiter3.2
ΔV w.r.t. Earth (km/sec)10.6
semimajor axis (AU)3.1935014
mean anomaly (°)0.06769
mean daily motion (°/day)0.17270430
aphelion distance (AU)3.575
period (years)5.71
P-vector [x]-0.35878073
P-vector [y]0.88980370
P-vector [z]0.28200312
Q-vector [x]-0.93341771
Q-vector [y]-0.34111137
Q-vector [z]-0.11124034
absolute magnitude16.63
phase slope0.15
uncertainty0
referenceMPEC 2024-C163
observations used147
oppositions12
arc length (days)6708
first opposition used2005
last opposition used2024
residual rms (arc-secs)0.77
perturbers coarse indicatorM-v
perturbers precise indicator003Ek
first observation date used2005-10-01.0
last observation date used2024-02-12.0
computer nameMPCLINUX
Minimum Orbit Intersection Distances (in AU)
for orbit epoch: 2460200.5, reference: E2024-CG3
Mercury2.49924
Venus2.10111
Earth1.83399
Mars1.20336
Jupiter1.56434
Saturn6.17392
Uranus15.4199
Neptune26.5581

Observations

145 total observations over interval: 2005 10 01.21552 – 2024 02 12.335691
These data are available for download (format description).

